Flag for Moldova Weather past 2 weeks in Bălți, Moldova

Now
39 °F

Chilly.


Feels Like: 32 °F
Forecast: 42 / 56 °F
Wind: 12 mph from Southeast

Location: Baltsi-Leadoveni - The North of Moldova

Current Time: Mar 1, 2015 at 10:13:51 PM

Latest Report: Mar 1, 2015 at 9:00 PM


Visibility: N/A

Pressure: 29.98 "Hg

Humidity: 87%

Dew point: 36 °F

Location of BălțiLocation

Historic Weather in Bălți — Graph

°F

Bălți temperature yesterday

Maximum temperature yesterday: 39 °F (at 1:00 AM)
Minimum temperature yesterday: 32 °F (at 6:00 AM)
Average temperature yesterday: 38 °F

Past Weeks' High & Low Weather Summary

 TemperatureHumidityPressure
High52 °F (Feb 23, 2:00 PM)100% (Feb 15, 12:00 AM)30.74 "Hg (Feb 15, 12:00 AM)
Low10 °F (Feb 17, 7:00 AM)18% (Feb 18, 2:30 PM)29.80 "Hg (Feb 23, 3:00 PM)
Average35 °F81%30.14 "Hg
* Reported Feb 14 9:00 PM — Mar 1 9:00 PM, Bălți, Weather by CustomWeather, © 2015

Note: Actual official high and low records may vary slightly from our data, if they occured in-between our weather recording intervals... More about our weather records

Advertising

Bălți weather history for previous 24 hours

 ConditionsComfort  
Time TempWeatherWind HumidityBarometerVisibility
9:00 PM
Sun, Mar 1
39 °FChilly.12 mph87%29.98 "HgN/A
8:00 PM37 °FChilly.13 mph93%29.98 "HgN/A
7:30 PM37 °FChilly.13 mph93%30.01 "HgN/A
7:00 PM39 °FChilly.12 mph87%30.01 "HgN/A
6:00 PM39 °FChilly.12 mph87%30.01 "HgN/A
5:30 PM39 °FChilly.13 mph87%30.01 "HgN/A
5:00 PM41 °FPartly sunny.12 mph81%30.01 "HgN/A
4:00 PM43 °FPartly sunny.8 mph81%30.01 "HgN/A
3:00 PM43 °FPartly sunny.13 mph76%30.04 "HgN/A
2:30 PM43 °FPartly sunny.12 mph76%30.04 "HgN/A
2:00 PM41 °FPartly sunny.12 mph76%30.07 "HgN/A
1:30 PM41 °FOvercast.12 mph81%30.07 "HgN/A
1:00 PM41 °FOvercast.10 mph81%30.07 "HgN/A
12:00 PM39 °FOvercast.10 mph81%30.09 "HgN/A
11:30 AM39 °FOvercast.10 mph81%30.09 "HgN/A
11:00 AM39 °FOvercast.10 mph81%30.09 "HgN/A
10:30 AM37 °FLow clouds.13 mph87%30.09 "HgN/A
10:00 AM37 °FLow clouds.13 mph87%30.09 "HgN/A
9:00 AM37 °FLow clouds.10 mph87%30.09 "HgN/A
8:30 AM37 °FLow clouds.8 mph87%30.09 "HgN/A
8:00 AM36 °FChilly.7 mph93%30.09 "HgN/A
7:00 AM36 °FChilly.3 mph93%30.09 "HgN/A
6:30 AM36 °FChilly.6 mph93%30.09 "HgN/A
6:00 AM36 °FChilly.6 mph93%30.09 "HgN/A
5:00 AM36 °FChilly.6 mph93%30.09 "HgN/A
4:00 AM36 °FChilly.7 mph93%30.09 "HgN/A
3:00 AM37 °FChilly.7 mph87%30.09 "HgN/A
2:30 AM37 °FChilly.6 mph87%30.09 "HgN/A
2:00 AM37 °FChilly.7 mph87%30.09 "HgN/A
1:00 AM37 °FChilly.6 mph87%30.12 "HgN/A
12:00 AM37 °FChilly.7 mph87%30.09 "HgN/A
11:00 PM
Sat, Feb 28
37 °FChilly.10 mph93%30.09 "HgN/A
10:00 PM39 °FChilly.9 mph87%30.12 "HgN/A
Weather by CustomWeather, © 2015

See weather overviewHow to use our weather pages